User: anonymous   Login
Location: Theydon Bois
(51.6750°N, 0.1050°E)
Time: 14:40:21
(UTC+01:00)
Language:

Cosmos 1000 Rocket - Orbit

View from above orbital plane
View from above orbital plane
View from above satellite
View from above satellite

Ground track
Ground track

The orbit data is extracted from the following two-line orbital elements,

1 10777U 78034B   17295.94618049 -.00000019 +00000-0 -33947-4 0  9991
2 10777 082.9401 135.5660 0025627 197.8281 272.0382 13.77395493987977
Epoch (UTC): 22 October 2017 22:42:29
Eccentricity: 0.0025627
inclination: 82.9401°
perigee height: 954 km
apogee height: 992 km
right ascension of ascending node: 135.5660°
argument of perigee: 197.8281°
revolutions per day: 13.77395493
mean anomaly at epoch: 272.0382°
orbit number at epoch: 98797

The dashed part of the orbit path shows where the satellite is in the earth's shadow,  

DLR